Location: *
(48.8489°N, 2.3218°E)
Time: 04:29:49
(UTC+00:00)

USA 234 - Pass Details

Date: 23 August 2019
Orbit: 1098 x 1109 km, 123.0° (Epoch: 16 September)

Event Time Altitude Azimuth Distance (km) Brightness Sun altitude
Exits shadow 19:48:13 - 138° (SE) 3,020 5.0 -9.3°
Reaches altitude 10° 19:48:23 10° 139° (SE) 2,955 4.9 -9.4°
Maximum altitude 19:54:51 64° 220° (SW) 1,213 3.6 -10.3°
Drops below altitude 10° 20:01:23 10° 302° (WNW) 2,975 7.1 -11.2°
Sets 20:03:55 0° 305° (NW) 3,937 8.4 -11.5°
